Torna al catalogo

STARLINK-35342

AttivoComunicazioniVLEO
NORAD 66181·PAYLOAD·🇺🇸 United States

Lanciato Oct 26, 2025 da Cape Canaveral Space Force Station

Loading…

Prossimi Passaggi (prossime 24 ore)

TLE

AggiornatoSource: CelesTrak SupGP

Epoca: Sep 14, 2026, 20:50 UTC

1 66181C 25243E   26257.86854167 -.00013494  00000+0 -39878-3 0  2572
2 66181  53.1574  84.0601 0001435  86.5370 244.1210 15.34390273    12

Traccia STARLINK-35342 in tempo reale con AllMySat

Download on the App Store